Regional Weather Roundup
Issued by NWS

Home | Current Version | Previous Version | Text Only | Print | Product List | Glossary On
Versions: 1 2 3 4 5 6 7 8 9 10 11 12 13 14 15 16 17 18 19 20 21 22 23 24 25 26 27 28 29 30 31 32 33 34 35 36 37 38 39 40 41 42 43 44 45 46 47 48 49 50
000
ASUS45 KBOU 050007
RWRCO

WEATHER ROUNDUP FOR COLORADO
NATIONAL WEATHER SERVICE DENVER/BOULDER CO
600 PM MDT TUE AUG 04 2015

NOTE: "FAIR" INDICATES FEW OR NO CLOUDS BELOW 12000 FEET WITH NO
SIGNIFICANT WEATHER AND/OR OBSTRUCTIONS TO VISIBILITY.

COZ001>005-013-030-031-050100-
...NORTHWEST COLORADO...

CITY           SKY/WX    TMP DP  RH WIND       PRES   REMARKS
CRAIG          NOT AVBL
HAYDEN         MOSUNNY   79  36  21 NW13      30.20F
MEEKER         MOSUNNY   82  33  17 W12       30.19S
MOUNT WERNER   NOT AVBL
STEAMBOAT SPGS   N/A    N/A N/A N/A MISG        N/A
WALDEN         MOSUNNY   70  32  24 W18G29    30.32S
$$

COZ006>008-011-050100-
...WEST CENTRAL VALLEYS...

CITY           SKY/WX    TMP DP  RH WIND       PRES   REMARKS
GRAND JUNCTION MOSUNNY   90  35  14 W6        30.05F
MONTROSE       MOSUNNY   86  42  21 W5        30.16F
EAGLE          MOSUNNY   82  34  17 W16G22    30.21F
RIFLE          PTSUNNY   87  41  19 W5        30.11F
DELTA          MOSUNNY   94  33  11 W14       30.09F
NUCLA          PTSUNNY   86  39  19 SW14G20   30.20F
$$

COZ017>023-064>068-050100-
...SOUTHWEST COLORADO...

CITY           SKY/WX    TMP DP  RH WIND       PRES   REMARKS
DURANGO        SUNNY     85  31  14 W13       30.22S
CORTEZ         MOSUNNY   86  41  20 NW9       30.18F
PAGOSA SPRINGS SUNNY     82  26  12 W14       30.28F
TELLURIDE      PTSUNNY   70  38  31 SW6       30.46F
WOLF CREEK PAS NOT AVBL
$$

COZ009-010-012-014-032>034-037-058>063-050100-
...CENTRAL COLORADO...

CITY           SKY/WX    TMP DP  RH WIND       PRES   REMARKS
ASPEN          MOSUNNY   74  41  30 N8        30.31S
BUENA VISTA    PTSUNNY   77  32  18 W13G18    30.30S
COPPER MTN     PTSUNNY   59  30  33 W21G30    30.64S
BERTHOUD PASS  PTSUNNY   50  37  62 NW31G43   30.64F
COTTONWOOD PAS PTSUNNY   68  28  22 W14       30.47R
GUNNISON       MOSUNNY   75  37  25 SW8       30.33S
KREMMLING      MOSUNNY   75  27  16 NW9G21    30.29S
LEADVILLE      PTSUNNY   63  35  35 NW13G21   30.47R
MONARCH PASS   MOSUNNY   59  34  38 W22G31    30.74R
SALIDA         MOSUNNY   82  31  15 W15G21    30.34S
SUNLIGHT       CLOUDY    64  45  48 CALM      30.58S
WILKERSON PASS NOT AVBL
$$

COZ069>075-050100-
...SAN LUIS VALLEY/SANGRE DE CRISTO MOUNTAINS...

CITY           SKY/WX    TMP DP  RH WIND       PRES   REMARKS
ALAMOSA        MOSUNNY   78  41  26 E5        30.26S
LA VETA PASS   MOSUNNY   64  32  29 MISG      30.49R
SAGUACHE       SUNNY     79  37  22 NW18      30.31S
$$

COZ035-036-038>040-050100-
...NORTHERN COLORADO FRONT RANGE...

CITY           SKY/WX    TMP DP  RH WIND       PRES   REMARKS
DENVER INTL AP MOSUNNY   88  41  19 NE7       30.07R
DMNS CITY PARK   N/A     88  31  13 NW9G23    30.06R
AURORA         MOSUNNY   88  37  16 N15       30.09R
FRONT RANGE AP MOSUNNY   84  39  20 N10       30.08S
ERIE MUNI ARPT SUNNY     90  33  13 CALM      30.05R
BOULDER MUN AP SUNNY     90  34  13 W22G28    30.06R
CENTENNIAL     MOSUNNY   87  33  14 N22G30    30.09R
BROOMFIELD     PTSUNNY   90  32  12 W20       30.09R
FORT COLLINS   SUNNY     88  45  22 NW9       30.02S
LONGMONT       SUNNY     88  35  15 W10       30.05R
$$

COZ041-046-047-076>085-087-088-050100-
...PIKES PEAK/PALMER DIVIDE AND SOUTHERN FOOTHILLS...

CITY           SKY/WX    TMP DP  RH WIND       PRES   REMARKS
COLO. SPRINGS  PTSUNNY   84  43  23 NE10      30.12R
A. F. ACADEMY  MOSUNNY   80  40  23 NE10      30.15R
ELLICOTT       PTSUNNY  N/A N/A N/A E12       30.11R
FALCON         PTSUNNY   77  46  32 NE6       30.20R
FORT CARSON    MOSUNNY   90  45  20 NE13G18   30.08R
LIMON          MOSUNNY   78  56  46 E20G28    30.09R
MONUMENT HILL  MOSUNNY   77  37  24 N7        30.21R
TRINIDAD       MOSUNNY   91  40  16 NW13G24   30.07S
$$

COZ042>045-048>051-090-091-050100-
...NORTHEAST COLORADO...

CITY           SKY/WX    TMP DP  RH WIND       PRES   REMARKS
GREELEY ARPT   SUNNY     88  48  25 SE6       30.02S
AKRON          PTSUNNY   78  53  41 E13       30.04S
BURLINGTON     SUNNY     81  55  40 NE14G21   30.02R
WRAY           CLOUDY    77  60  54 E5        30.00S
STERLING       PTSUNNY   79  55  44 NE6       30.01R
HOLYOKE        CLOUDY    73  61  64 E5        30.01S
FORT MORGAN    PTSUNNY   80  51  36 E12       30.03S
$$

COZ086-089-092>099-050100-
...SOUTHEAST COLORADO...

CITY           SKY/WX    TMP DP  RH WIND       PRES   REMARKS
PUEBLO         MOSUNNY   97  31   9 NW21G28   29.97R
LA JUNTA       MOSUNNY   95  47  19 E7        29.94F
LAMAR          SUNNY     94  50  22 CALM      29.90S
SPRINGFIELD      N/A     94  43  17 NE10      29.96S
$$


USA.gov is the U.S. government's official web portal to all federal, state and local government web resources and services.